Time,TemperatureF,DewpointF,PressureIn,WindDirection,WindDirectionDegrees,WindSpeedMPH,WindSpeedGustMPH,Humidity,HourlyPrecipIn,Conditions,Clouds,dailyrainin,SolarRadiationWatts/m^2,SoftwareType,DateUTC
2013-03-05 00:00:00,50.9,45.9,30.13,ESE,103,0.0,0.0,83,0.00,,CLR,0.00,0.00,VWS V14.00,2013-03-05 05:00:00,
2013-03-05 00:01:00,51.0,46.0,30.14,ESE,103,0.0,0.0,83,0.00,,CLR,0.00,0.00,VWS V14.00,2013-03-05 05:01:00,
2013-03-05 00:06:00,51.0,46.0,30.13,ESE,103,0.0,0.0,83,0.00,,CLR,0.00,0.00,VWS V14.00,2013-03-05 05:06:00,
2013-03-05 00:11:00,51.1,46.4,30.14,ESE,103,0.0,0.0,84,0.00,,CLR,0.00,0.00,VWS V14.00,2013-03-05 05:11:00,
2013-03-05 00:16:00,51.1,46.8,30.13,ESE,103,0.0,0.0,85,0.00,,CLR,0.00,0.00,VWS V14.00,2013-03-05 05:16:00,
2013-03-05 00:21:00,51.1,46.8,30.13,ESE,103,0.0,0.0,85,0.00,,CLR,0.00,0.00,VWS V14.00,2013-03-05 05:21:00,
2013-03-05 00:26:00,51.1,46.8,30.13,ESE,103,0.0,0.0,85,0.00,,CLR,0.00,0.00,VWS V14.00,2013-03-05 05:26:00,
2013-03-05 00:31:00,51.2,47.2,30.13,ESE,103,0.0,0.0,86,0.00,,CLR,0.00,0.00,VWS V14.00,2013-03-05 05:31:00,
2013-03-05 00:36:00,51.3,47.3,30.13,ESE,103,0.0,0.0,86,0.00,,CLR,0.00,0.00,VWS V14.00,2013-03-05 05:36:00,
2013-03-05 00:41:00,51.3,47.3,30.13,ESE,103,0.0,0.0,86,0.00,,CLR,0.00,0.00,VWS V14.00,2013-03-05 05:41:00,
2013-03-05 00:46:00,51.4,47.7,30.12,ESE,103,0.0,0.0,87,0.00,,CLR,0.00,0.00,VWS V14.00,2013-03-05 05:46:00,
2013-03-05 00:51:00,51.4,47.4,30.12,ESE,103,0.0,0.0,86,0.00,,CLR,0.00,0.00,VWS V14.00,2013-03-05 05:51:00,
2013-03-05 00:56:00,51.5,47.8,30.13,ESE,103,0.0,0.0,87,0.00,,CLR,0.00,0.00,VWS V14.00,2013-03-05 05:56:00,
2013-03-05 01:01:00,51.5,47.8,30.13,ESE,103,0.0,0.0,87,0.00,,CLR,0.00,0.00,VWS V14.00,2013-03-05 06:01:00,
2013-03-05 01:06:00,51.5,47.8,30.12,ESE,103,0.0,0.0,87,0.00,,CLR,0.00,0.00,VWS V14.00,2013-03-05 06:06:00,
2013-03-05 01:11:00,51.5,47.8,30.12,ESE,103,0.0,0.0,87,0.00,,CLR,0.00,0.00,VWS V14.00,2013-03-05 06:11:00,
2013-03-05 01:16:00,51.5,47.8,30.12,ESE,103,0.0,0.0,87,0.00,,CLR,0.00,0.00,VWS V14.00,2013-03-05 06:16:00,
2013-03-05 01:21:00,51.5,48.1,30.12,ESE,103,0.0,0.0,88,0.00,,CLR,0.00,0.00,VWS V14.00,2013-03-05 06:21:00,
2013-03-05 01:26:00,51.6,48.2,30.12,ESE,103,0.0,0.0,88,0.00,,CLR,0.00,0.00,VWS V14.00,2013-03-05 06:26:00,
2013-03-05 01:31:00,51.6,48.2,30.11,ESE,103,0.0,0.0,88,0.00,,CLR,0.00,0.00,VWS V14.00,2013-03-05 06:31:00,
2013-03-05 01:36:00,51.6,48.2,30.11,ESE,103,0.0,0.0,88,0.00,,CLR,0.00,0.00,VWS V14.00,2013-03-05 06:36:00,
2013-03-05 01:41:00,51.7,48.3,30.11,ESE,103,0.0,0.0,88,0.00,,CLR,0.00,0.00,VWS V14.00,2013-03-05 06:41:00,
2013-03-05 01:46:00,51.6,48.2,30.11,ESE,103,0.0,0.0,88,0.00,,CLR,0.00,0.00,VWS V14.00,2013-03-05 06:46:00,
2013-03-05 01:51:00,51.6,48.2,30.11,ESE,103,0.0,0.0,88,0.00,,CLR,0.00,0.00,VWS V14.00,2013-03-05 06:51:00,
2013-03-05 01:56:00,51.7,48.3,30.11,ESE,103,0.0,0.0,88,0.00,,CLR,0.00,0.00,VWS V14.00,2013-03-05 06:56:00,
2013-03-05 02:01:00,51.6,48.2,30.11,ESE,103,0.0,0.0,88,0.00,,CLR,0.00,0.00,VWS V14.00,2013-03-05 07:01:00,
2013-03-05 02:06:00,51.4,48.0,30.11,ESE,103,0.0,0.0,88,0.00,,CLR,0.00,0.00,VWS V14.00,2013-03-05 07:06:00,
2013-03-05 02:11:00,51.3,47.9,30.10,ESE,103,0.0,0.0,88,0.00,,CLR,0.00,0.00,VWS V14.00,2013-03-05 07:11:00,
2013-03-05 02:16:00,51.2,47.8,30.10,ESE,103,0.0,0.0,88,0.00,,CLR,0.00,0.00,VWS V14.00,2013-03-05 07:16:00,
2013-03-05 02:21:00,51.2,48.1,30.10,ESE,103,0.0,0.0,89,0.00,,CLR,0.00,0.00,VWS V14.00,2013-03-05 07:21:00,
2013-03-05 02:26:00,51.4,48.3,30.10,ESE,103,0.0,0.0,89,0.00,,CLR,0.00,0.00,VWS V14.00,2013-03-05 07:26:00,
2013-03-05 02:31:00,51.4,48.3,30.09,ESE,103,0.0,0.0,89,0.00,,CLR,0.00,0.00,VWS V14.00,2013-03-05 07:31:00,
2013-03-05 02:36:00,51.3,48.2,30.10,ESE,103,0.0,0.0,89,0.00,,CLR,0.00,0.00,VWS V14.00,2013-03-05 07:36:00,
2013-03-05 02:41:00,51.2,48.1,30.10,ESE,103,0.0,0.0,89,0.00,,CLR,0.00,0.00,VWS V14.00,2013-03-05 07:41:00,
2013-03-05 02:46:00,51.1,48.0,30.09,ESE,103,0.0,0.0,89,0.00,,CLR,0.00,0.00,VWS V14.00,2013-03-05 07:46:00,
2013-03-05 02:51:00,50.9,47.8,30.09,ESE,103,0.0,0.0,89,0.00,,CLR,0.00,0.00,VWS V14.00,2013-03-05 07:51:00,
2013-03-05 02:56:00,50.6,47.5,30.09,ESE,103,0.0,0.0,89,0.00,,CLR,0.00,0.00,VWS V14.00,2013-03-05 07:56:00,
2013-03-05 03:01:00,50.5,47.4,30.09,ESE,103,0.0,0.0,89,0.00,,CLR,0.00,0.00,VWS V14.00,2013-03-05 08:01:00,
2013-03-05 03:06:00,50.5,47.4,30.09,ESE,103,0.0,0.0,89,0.00,,CLR,0.00,0.00,VWS V14.00,2013-03-05 08:06:00,
2013-03-05 03:11:00,50.7,47.9,30.09,ESE,103,0.0,0.0,90,0.00,,CLR,0.00,0.00,VWS V14.00,2013-03-05 08:11:00,
2013-03-05 03:16:00,50.8,48.0,30.09,ESE,103,0.0,0.0,90,0.00,,CLR,0.00,0.00,VWS V14.00,2013-03-05 08:16:00,
2013-03-05 03:21:00,50.8,48.0,30.09,ESE,103,0.0,0.0,90,0.00,,CLR,0.00,0.00,VWS V14.00,2013-03-05 08:21:00,
2013-03-05 03:26:00,50.6,47.8,30.09,ESE,103,0.0,0.0,90,0.00,,CLR,0.00,0.00,VWS V14.00,2013-03-05 08:26:00,
2013-03-05 03:31:00,50.5,47.7,30.09,ESE,103,0.0,0.0,90,0.00,,CLR,0.00,0.00,VWS V14.00,2013-03-05 08:31:00,
2013-03-05 03:36:00,50.5,47.7,30.09,ESE,103,0.0,0.0,90,0.00,,CLR,0.00,0.00,VWS V14.00,2013-03-05 08:36:00,
2013-03-05 03:41:00,50.6,47.8,30.09,ESE,103,0.0,0.0,90,0.00,,CLR,0.00,0.00,VWS V14.00,2013-03-05 08:41:00,
2013-03-05 03:46:00,50.7,47.9,30.09,ESE,103,0.0,0.0,90,0.00,,CLR,0.00,0.00,VWS V14.00,2013-03-05 08:46:00,
2013-03-05 03:51:00,50.6,47.8,30.09,ESE,103,0.0,0.0,90,0.00,,CLR,0.00,0.00,VWS V14.00,2013-03-05 08:51:00,
2013-03-05 03:56:00,50.5,47.7,30.09,ESE,103,0.0,0.0,90,0.00,,CLR,0.00,0.00,VWS V14.00,2013-03-05 08:56:00,
2013-03-05 04:01:00,50.4,47.6,30.09,ESE,103,0.0,0.0,90,0.00,,CLR,0.00,0.00,VWS V14.00,2013-03-05 09:01:00,
2013-03-05 04:06:00,50.3,47.5,30.09,ESE,103,0.0,0.0,90,0.00,,CLR,0.00,0.00,VWS V14.00,2013-03-05 09:06:00,
2013-03-05 04:12:00,50.4,47.6,30.09,ESE,103,0.0,0.0,90,0.00,,CLR,0.00,0.00,VWS V14.00,2013-03-05 09:12:00,
2013-03-05 04:17:00,50.6,48.1,30.09,ESE,103,0.0,0.0,91,0.00,,CLR,0.00,0.00,VWS V14.00,2013-03-05 09:17:00,
2013-03-05 04:22:00,50.5,48.0,30.09,ESE,103,0.0,0.0,91,0.00,,CLR,0.00,0.00,VWS V14.00,2013-03-05 09:22:00,
2013-03-05 04:27:00,50.4,47.9,30.09,ESE,103,0.0,0.0,91,0.00,,CLR,0.00,0.00,VWS V14.00,2013-03-05 09:27:00,
2013-03-05 04:32:00,50.3,47.5,30.09,ESE,103,0.0,0.0,90,0.00,,CLR,0.00,0.00,VWS V14.00,2013-03-05 09:32:00,
2013-03-05 04:37:00,50.1,47.3,30.09,ESE,103,0.0,0.0,90,0.00,,CLR,0.00,0.00,VWS V14.00,2013-03-05 09:37:00,
2013-03-05 04:42:00,50.1,47.6,30.09,ESE,103,0.0,0.0,91,0.00,,CLR,0.00,0.00,VWS V14.00,2013-03-05 09:42:00,
2013-03-05 04:47:00,50.3,47.8,30.10,ESE,103,0.0,0.0,91,0.00,,CLR,0.00,0.00,VWS V14.00,2013-03-05 09:47:00,
2013-03-05 04:52:00,50.3,47.8,30.10,ESE,103,0.0,0.0,91,0.00,,CLR,0.00,0.00,VWS V14.00,2013-03-05 09:52:00,
2013-03-05 04:57:00,50.3,47.8,30.10,ESE,103,0.0,0.0,91,0.00,,CLR,0.00,0.00,VWS V14.00,2013-03-05 09:57:00,
2013-03-05 05:02:00,50.4,47.9,30.10,ESE,103,0.0,0.0,91,0.00,,CLR,0.00,0.00,VWS V14.00,2013-03-05 10:02:00,
2013-03-05 05:07:00,50.3,47.8,30.10,ESE,103,0.0,0.0,91,0.00,,CLR,0.00,0.00,VWS V14.00,2013-03-05 10:07:00,
2013-03-05 05:12:00,50.1,47.6,30.11,ESE,103,0.0,0.0,91,0.00,,CLR,0.00,0.00,VWS V14.00,2013-03-05 10:12:00,
2013-03-05 05:17:00,50.0,47.5,30.10,ESE,103,0.0,0.0,91,0.00,,CLR,0.00,0.00,VWS V14.00,2013-03-05 10:17:00,
2013-03-05 05:22:00,50.0,47.5,30.10,ESE,103,0.0,0.0,91,0.00,,CLR,0.00,0.00,VWS V14.00,2013-03-05 10:22:00,
2013-03-05 05:27:00,50.1,47.6,30.11,ESE,103,0.0,0.0,91,0.00,,CLR,0.00,0.00,VWS V14.00,2013-03-05 10:27:00,
2013-03-05 05:32:00,50.1,47.6,30.11,ESE,103,0.0,0.0,91,0.00,,CLR,0.00,0.00,VWS V14.00,2013-03-05 10:32:00,
2013-03-05 05:37:00,50.0,47.5,30.11,ESE,103,0.0,0.0,91,0.00,,CLR,0.00,0.00,VWS V14.00,2013-03-05 10:37:00,
2013-03-05 05:42:00,49.9,47.4,30.11,ESE,103,0.0,0.0,91,0.00,,CLR,0.00,0.00,VWS V14.00,2013-03-05 10:42:00,
2013-03-05 05:47:00,49.9,47.4,30.11,ESE,103,0.0,0.0,91,0.00,,CLR,0.00,0.00,VWS V14.00,2013-03-05 10:47:00,
2013-03-05 05:52:00,49.9,47.4,30.11,ESE,103,0.0,0.0,91,0.00,,CLR,0.00,0.00,VWS V14.00,2013-03-05 10:52:00,
2013-03-05 05:57:00,50.0,47.8,30.11,ESE,103,0.0,0.0,92,0.00,,CLR,0.00,0.00,VWS V14.00,2013-03-05 10:57:00,
2013-03-05 06:02:00,50.0,48.6,30.12,ESE,103,0.0,0.0,95,0.00,,CLR,0.00,0.00,VWS V14.00,2013-03-05 11:02:00,
2013-03-05 06:07:00,50.0,47.8,30.11,ESE,103,0.0,0.0,92,0.00,,CLR,0.00,0.00,VWS V14.00,2013-03-05 11:07:00,
2013-03-05 06:12:00,50.0,48.6,30.12,ESE,103,0.0,0.0,95,0.00,,CLR,0.00,0.00,VWS V14.00,2013-03-05 11:12:00,
2013-03-05 06:17:00,49.9,47.4,30.12,ESE,103,0.0,0.0,91,0.00,,CLR,0.00,0.00,VWS V14.00,2013-03-05 11:17:00,
2013-03-05 06:22:00,50.0,47.5,30.12,ESE,103,0.0,0.0,91,0.00,,CLR,0.00,0.00,VWS V14.00,2013-03-05 11:22:00,
2013-03-05 06:27:00,50.2,48.0,30.12,ESE,103,0.0,0.0,92,0.00,,CLR,0.00,0.00,VWS V14.00,2013-03-05 11:27:00,
2013-03-05 06:32:00,50.3,48.1,30.12,ESE,103,0.0,0.0,92,0.00,,CLR,0.00,0.00,VWS V14.00,2013-03-05 11:32:00,
2013-03-05 06:37:00,50.3,48.1,30.12,ESE,103,0.0,0.0,92,0.00,,CLR,0.00,0.00,VWS V14.00,2013-03-05 11:37:00,
2013-03-05 06:42:00,50.2,48.0,30.12,ESE,103,0.0,0.0,92,0.00,,CLR,0.00,0.00,VWS V14.00,2013-03-05 11:42:00,
2013-03-05 06:47:00,50.3,48.1,30.12,ESE,103,0.0,0.0,92,0.00,,CLR,0.00,0.00,VWS V14.00,2013-03-05 11:47:00,
2013-03-05 06:52:00,50.4,48.2,30.12,ESE,103,0.0,0.0,92,0.00,,CLR,0.00,16.00,VWS V14.00,2013-03-05 11:52:00,
2013-03-05 06:57:00,50.4,48.2,30.12,ESE,103,0.0,0.0,92,0.00,,CLR,0.00,28.00,VWS V14.00,2013-03-05 11:57:00,
2013-03-05 07:02:00,50.6,48.4,30.12,ESE,103,0.0,0.0,92,0.00,,CLR,0.00,72.00,VWS V14.00,2013-03-05 12:02:00,
2013-03-05 07:08:00,50.7,48.5,30.12,ESE,103,0.0,0.0,92,0.00,,CLR,0.00,81.00,VWS V14.00,2013-03-05 12:08:00,
2013-03-05 07:13:00,50.8,48.6,30.12,ESE,103,0.0,0.0,92,0.00,,CLR,0.00,90.00,VWS V14.00,2013-03-05 12:13:00,
2013-03-05 07:18:00,51.1,48.9,30.13,ENE,59,0.0,0.0,92,0.00,,CLR,0.00,76.00,VWS V14.00,2013-03-05 12:18:00,
2013-03-05 07:23:00,51.5,49.3,30.13,ENE,59,0.0,1.0,92,0.00,,CLR,0.00,53.00,VWS V14.00,2013-03-05 12:23:00,
2013-03-05 07:28:00,52.0,49.8,30.12,ENE,59,0.0,0.0,92,0.00,,CLR,0.00,53.00,VWS V14.00,2013-03-05 12:28:00,
2013-03-05 07:33:00,52.5,50.2,30.13,ENE,59,0.0,0.0,92,0.00,,FEW050,0.00,60.00,VWS V14.00,2013-03-05 12:33:00,
2013-03-05 07:38:00,53.0,50.7,30.13,ENE,59,0.0,0.0,92,0.00,,FEW050,0.00,72.00,VWS V14.00,2013-03-05 12:38:00,
2013-03-05 07:43:00,53.6,51.3,30.13,ENE,59,0.0,0.0,92,0.00,,FEW050,0.00,83.00,VWS V14.00,2013-03-05 12:43:00,
2013-03-05 07:48:00,54.3,52.0,30.13,ENE,64,0.0,0.0,92,0.00,,FEW050,0.00,98.00,VWS V14.00,2013-03-05 12:48:00,
2013-03-05 07:53:00,54.8,52.2,30.13,NE,47,2.0,3.0,91,0.00,,FEW050,0.00,111.00,VWS V14.00,2013-03-05 12:53:00,
2013-03-05 07:58:00,55.5,52.6,30.13,NE,47,0.0,0.0,90,0.00,,FEW050,0.00,116.00,VWS V14.00,2013-03-05 12:58:00,
2013-03-05 08:03:00,56.1,53.2,30.14,NE,47,0.0,2.0,90,0.00,,FEW050,0.00,121.00,VWS V14.00,2013-03-05 13:03:00,
2013-03-05 08:08:00,56.8,53.6,30.14,NE,47,0.0,1.0,89,0.00,,FEW050,0.00,125.00,VWS V14.00,2013-03-05 13:08:00,
2013-03-05 08:13:00,57.6,53.5,30.14,NE,47,0.0,0.0,86,0.00,,FEW050,0.00,130.00,VWS V14.00,2013-03-05 13:13:00,
2013-03-05 08:18:00,58.3,53.5,30.14,NE,47,2.0,2.0,84,0.00,,FEW050,0.00,134.00,VWS V14.00,2013-03-05 13:18:00,
2013-03-05 08:23:00,59.1,53.3,30.14,NE,47,0.0,1.0,81,0.00,,FEW050,0.00,137.00,VWS V14.00,2013-03-05 13:23:00,
2013-03-05 08:28:00,59.8,53.3,30.14,NE,47,0.0,2.0,79,0.00,,FEW050,0.00,141.00,VWS V14.00,2013-03-05 13:28:00,
2013-03-05 08:33:00,60.5,53.6,30.14,NE,47,2.0,2.0,78,0.00,,FEW050,0.00,142.00,VWS V14.00,2013-03-05 13:33:00,
2013-03-05 08:38:00,61.1,53.5,30.14,NE,47,0.0,2.0,76,0.00,,FEW050,0.00,146.00,VWS V14.00,2013-03-05 13:38:00,
2013-03-05 08:43:00,61.5,53.9,30.14,NE,47,0.0,2.0,76,0.00,,FEW050,0.00,148.00,VWS V14.00,2013-03-05 13:43:00,
2013-03-05 08:48:00,62.0,54.0,30.14,NE,47,0.0,0.0,75,0.00,,FEW050,0.00,149.00,VWS V14.00,2013-03-05 13:48:00,
2013-03-05 08:53:00,62.6,54.6,30.14,East,94,0.0,0.0,75,0.00,,FEW050,0.00,149.00,VWS V14.00,2013-03-05 13:53:00,
2013-03-05 08:58:00,63.3,54.9,30.14,East,94,1.0,2.0,74,0.00,,FEW050,0.00,151.00,VWS V14.00,2013-03-05 13:58:00,
2013-03-05 09:03:00,63.8,55.0,30.14,East,94,1.0,2.0,73,0.00,,FEW050,0.00,151.00,VWS V14.00,2013-03-05 14:03:00,
2013-03-05 09:08:00,64.2,55.0,30.14,East,94,0.0,3.0,72,0.00,,FEW050,0.00,151.00,VWS V14.00,2013-03-05 14:08:00,
2013-03-05 09:13:00,64.6,55.4,30.14,East,94,0.0,1.0,72,0.00,,FEW050,0.00,151.00,VWS V14.00,2013-03-05 14:13:00,
2013-03-05 09:18:00,65.1,55.5,30.14,East,94,2.0,3.0,71,0.00,,FEW050,0.00,151.00,VWS V14.00,2013-03-05 14:18:00,
2013-03-05 09:23:00,65.6,55.6,30.14,East,94,0.0,3.0,70,0.00,,FEW050,0.00,151.00,VWS V14.00,2013-03-05 14:23:00,
2013-03-05 09:28:00,65.7,55.7,30.14,East,94,0.0,0.0,70,0.00,,FEW050,0.00,151.00,VWS V14.00,2013-03-05 14:28:00,
2013-03-05 09:33:00,65.9,55.8,30.14,East,94,0.0,0.0,70,0.00,,FEW060,0.00,151.00,VWS V14.00,2013-03-05 14:33:00,
2013-03-05 09:38:00,66.3,56.2,30.13,East,94,0.0,0.0,70,0.00,,FEW060,0.00,151.00,VWS V14.00,2013-03-05 14:38:00,
2013-03-05 09:43:00,66.9,56.8,30.13,ESE,102,3.0,6.0,70,0.00,,FEW060,0.00,151.00,VWS V14.00,2013-03-05 14:43:00,
2013-03-05 09:48:00,67.9,57.8,30.13,ESE,103,0.0,0.0,70,0.00,,FEW060,0.00,153.00,VWS V14.00,2013-03-05 14:48:00,
2013-03-05 09:53:00,68.5,57.1,30.13,ESE,122,5.0,5.0,67,0.00,,FEW060,0.00,153.00,VWS V14.00,2013-03-05 14:53:00,
2013-03-05 09:58:00,68.6,57.2,30.12,SW,218,7.0,9.0,67,0.00,,FEW060,0.00,165.00,VWS V14.00,2013-03-05 14:58:00,
2013-03-05 10:04:00,68.8,57.4,30.12,South,185,2.0,11.0,67,0.00,,FEW060,0.00,165.00,VWS V14.00,2013-03-05 15:04:00,
2013-03-05 10:09:00,69.0,57.2,30.12,SW,219,6.0,12.0,66,0.00,,FEW060,0.00,153.00,VWS V14.00,2013-03-05 15:09:00,
2013-03-05 10:14:00,69.4,57.6,30.12,SSE,167,7.0,7.0,66,0.00,,FEW060,0.00,149.00,VWS V14.00,2013-03-05 15:14:00,
2013-03-05 10:19:00,69.5,57.2,30.12,SSW,202,0.0,10.0,65,0.00,,FEW060,0.00,148.00,VWS V14.00,2013-03-05 15:19:00,
2013-03-05 10:24:00,69.7,57.4,30.11,SSE,162,5.0,6.0,65,0.00,,FEW060,0.00,149.00,VWS V14.00,2013-03-05 15:24:00,
2013-03-05 10:29:00,70.0,56.8,30.12,South,173,6.0,13.0,63,0.00,,FEW060,0.00,149.00,VWS V14.00,2013-03-05 15:29:00,
2013-03-05 10:34:00,70.0,56.4,30.12,SSE,161,1.0,8.0,62,0.00,,FEW040,0.00,149.00,VWS V14.00,2013-03-05 15:34:00,
2013-03-05 10:39:00,70.1,56.5,30.12,South,178,2.0,2.0,62,0.00,,FEW040,0.00,148.00,VWS V14.00,2013-03-05 15:39:00,
2013-03-05 10:44:00,70.2,56.1,30.12,SSE,147,2.0,11.0,61,0.00,,FEW040,0.00,148.00,VWS V14.00,2013-03-05 15:44:00,
2013-03-05 10:49:00,70.3,56.7,30.12,SSE,165,3.0,6.0,62,0.00,,FEW040,0.00,146.00,VWS V14.00,2013-03-05 15:49:00,
2013-03-05 10:54:00,71.0,56.9,30.12,SSE,166,4.0,7.0,61,0.00,,FEW040,0.00,146.00,VWS V14.00,2013-03-05 15:54:00,
2013-03-05 10:59:00,71.6,57.5,30.12,SSE,167,0.0,5.0,61,0.00,,FEW040,0.00,144.00,VWS V14.00,2013-03-05 15:59:00,
2013-03-05 11:04:00,71.8,56.7,30.11,South,185,5.0,6.0,59,0.00,,FEW040,0.00,144.00,VWS V14.00,2013-03-05 16:04:00,
2013-03-05 11:09:00,71.9,56.8,30.11,SSW,196,4.0,8.0,59,0.00,,FEW040,0.00,142.00,VWS V14.00,2013-03-05 16:09:00,
2013-03-05 11:14:00,71.9,56.3,30.11,SSW,202,4.0,4.0,58,0.00,,FEW040,0.00,141.00,VWS V14.00,2013-03-05 16:14:00,
2013-03-05 11:19:00,72.1,56.5,30.11,South,178,7.0,15.0,58,0.00,,FEW040,0.00,142.00,VWS V14.00,2013-03-05 16:19:00,
2013-03-05 11:24:00,72.2,56.1,30.12,SSW,195,5.0,12.0,57,0.00,,FEW040,0.00,142.00,VWS V14.00,2013-03-05 16:24:00,
2013-03-05 11:29:00,72.0,55.5,30.12,SSW,203,1.0,7.0,56,0.00,,FEW040,0.00,137.00,VWS V14.00,2013-03-05 16:29:00,
2013-03-05 11:34:00,71.8,56.2,30.11,SSW,201,3.0,6.0,58,0.00,,FEW045,0.00,137.00,VWS V14.00,2013-03-05 16:34:00,
2013-03-05 11:39:00,71.9,55.9,30.11,South,169,0.0,5.0,57,0.00,,FEW045,0.00,139.00,VWS V14.00,2013-03-05 16:39:00,
2013-03-05 11:44:00,72.1,56.0,30.11,South,176,3.0,12.0,57,0.00,,FEW045,0.00,137.00,VWS V14.00,2013-03-05 16:44:00,
2013-03-05 11:49:00,72.1,56.0,30.11,SSE,156,0.0,4.0,57,0.00,,FEW045,0.00,141.00,VWS V14.00,2013-03-05 16:49:00,
2013-03-05 11:54:00,72.4,56.3,30.11,SSW,198,11.0,11.0,57,0.00,,FEW045,0.00,144.00,VWS V14.00,2013-03-05 16:54:00,
2013-03-05 11:59:00,73.0,55.4,30.11,SSW,198,3.0,10.0,54,0.00,,FEW045,0.00,144.00,VWS V14.00,2013-03-05 16:59:00,
2013-03-05 12:04:00,73.1,56.0,30.11,South,191,0.0,0.0,55,0.00,,FEW045,0.00,146.00,VWS V14.00,2013-03-05 17:04:00,
2013-03-05 12:09:00,72.8,55.2,30.11,South,184,9.0,11.0,54,0.00,,FEW045,0.00,146.00,VWS V14.00,2013-03-05 17:09:00,
2013-03-05 12:14:00,72.6,56.0,30.10,SSW,206,3.0,4.0,56,0.00,,FEW045,0.00,149.00,VWS V14.00,2013-03-05 17:14:00,
2013-03-05 12:19:00,72.5,55.9,30.10,SSW,193,4.0,9.0,56,0.00,,FEW045,0.00,151.00,VWS V14.00,2013-03-05 17:19:00,
2013-03-05 12:24:00,72.7,55.1,30.10,South,180,2.0,12.0,54,0.00,,FEW045,0.00,149.00,VWS V14.00,2013-03-05 17:24:00,
2013-03-05 12:29:00,72.9,55.3,30.10,SW,219,2.0,6.0,54,0.00,,FEW045,0.00,149.00,VWS V14.00,2013-03-05 17:29:00,
2013-03-05 12:34:00,73.2,55.1,30.10,South,187,3.0,7.0,53,0.00,,FEW045,0.00,151.00,VWS V14.00,2013-03-05 17:34:00,
2013-03-05 12:39:00,73.5,53.2,30.10,SW,225,0.0,9.0,49,0.00,,FEW045,0.00,153.00,VWS V14.00,2013-03-05 17:39:00,
2013-03-05 12:44:00,73.9,54.7,30.09,SW,214,9.0,13.0,51,0.00,,FEW045,0.00,153.00,VWS V14.00,2013-03-05 17:44:00,
2013-03-05 12:49:00,73.7,54.5,30.09,SW,227,2.0,7.0,51,0.00,,FEW045,0.00,153.00,VWS V14.00,2013-03-05 17:49:00,
2013-03-05 12:54:00,73.6,55.4,30.08,South,189,1.0,10.0,53,0.00,,FEW045,0.00,153.00,VWS V14.00,2013-03-05 17:54:00,
2013-03-05 12:59:00,73.8,55.1,30.08,South,191,3.0,9.0,52,0.00,,FEW045,0.00,153.00,VWS V14.00,2013-03-05 17:59:00,
2013-03-05 13:04:00,73.8,54.6,30.08,SSW,192,3.0,7.0,51,0.00,,FEW045,0.00,153.00,VWS V14.00,2013-03-05 18:04:00,
2013-03-05 13:09:00,73.9,54.1,30.08,SSW,200,2.0,6.0,50,0.00,,FEW045,0.00,155.00,VWS V14.00,2013-03-05 18:09:00,
2013-03-05 13:14:00,73.7,55.5,30.08,SSW,200,0.0,1.0,53,0.00,,FEW045,0.00,153.00,VWS V14.00,2013-03-05 18:14:00,
2013-03-05 13:19:00,73.7,55.0,30.07,SSE,166,4.0,4.0,52,0.00,,FEW045,0.00,151.00,VWS V14.00,2013-03-05 18:19:00,
2013-03-05 13:24:00,73.3,55.7,30.07,SSW,198,7.0,7.0,54,0.00,,FEW045,0.00,151.00,VWS V14.00,2013-03-05 18:24:00,
2013-03-05 13:29:00,74.0,55.8,30.07,SSW,194,6.0,9.0,53,0.00,,FEW045,0.00,151.00,VWS V14.00,2013-03-05 18:29:00,
2013-03-05 13:34:00,74.1,56.4,30.07,South,191,7.0,7.0,54,0.00,,FEW045,0.00,149.00,VWS V14.00,2013-03-05 18:34:00,
2013-03-05 13:39:00,74.3,56.6,30.07,SSE,163,6.0,6.0,54,0.00,,FEW045,0.00,158.00,VWS V14.00,2013-03-05 18:39:00,
2013-03-05 13:44:00,74.2,57.0,30.07,SSW,202,4.0,9.0,55,0.00,,FEW045,0.00,162.00,VWS V14.00,2013-03-05 18:44:00,
2013-03-05 13:49:00,74.1,57.4,30.06,South,186,13.0,16.0,56,0.00,,FEW045,0.00,162.00,VWS V14.00,2013-03-05 18:49:00,
2013-03-05 13:54:00,73.8,57.6,30.06,South,178,10.0,14.0,57,0.00,,FEW045,0.00,156.00,VWS V14.00,2013-03-05 18:54:00,
2013-03-05 13:59:00,73.7,57.0,30.06,South,172,6.0,8.0,56,0.00,,FEW045,0.00,47.00,VWS V14.00,2013-03-05 18:59:00,
2013-03-05 14:05:00,73.0,57.8,30.06,SE,129,5.0,12.0,59,0.00,,FEW045,0.00,90.00,VWS V14.00,2013-03-05 19:05:00,
2013-03-05 14:10:00,72.8,57.7,30.05,SSE,157,4.0,10.0,59,0.00,,FEW045,0.00,148.00,VWS V14.00,2013-03-05 19:10:00,
2013-03-05 14:15:00,72.9,57.3,30.05,SSE,163,5.0,12.0,58,0.00,,FEW045,0.00,144.00,VWS V14.00,2013-03-05 19:15:00,
2013-03-05 14:20:00,73.3,57.7,30.05,South,178,3.0,13.0,58,0.00,,FEW045,0.00,120.00,VWS V14.00,2013-03-05 19:20:00,
2013-03-05 14:25:00,73.4,57.3,30.05,SSW,204,3.0,11.0,57,0.00,,FEW045,0.00,144.00,VWS V14.00,2013-03-05 19:25:00,
2013-03-05 14:30:00,73.2,57.5,30.04,SSW,206,4.0,10.0,58,0.00,,FEW045,0.00,146.00,VWS V14.00,2013-03-05 19:30:00,
2013-03-05 14:35:00,73.0,57.4,30.05,SE,138,13.0,13.0,58,0.00,,FEW050,0.00,146.00,VWS V14.00,2013-03-05 19:35:00,
2013-03-05 14:40:00,72.7,57.1,30.05,SSE,163,10.0,15.0,58,0.00,,FEW050,0.00,49.00,VWS V14.00,2013-03-05 19:40:00,
2013-03-05 14:45:00,72.6,57.5,30.05,South,178,10.0,10.0,59,0.00,,FEW050,0.00,72.00,VWS V14.00,2013-03-05 19:45:00,
2013-03-05 14:50:00,72.9,57.3,30.04,South,190,4.0,9.0,58,0.00,,FEW050,0.00,139.00,VWS V14.00,2013-03-05 19:50:00,
2013-03-05 14:55:00,72.9,57.8,30.05,SSW,213,12.0,15.0,59,0.00,,FEW050,0.00,128.00,VWS V14.00,2013-03-05 19:55:00,
2013-03-05 15:00:00,72.9,57.8,30.05,SSW,195,2.0,7.0,59,0.00,,FEW050,0.00,134.00,VWS V14.00,2013-03-05 20:00:00,
2013-03-05 15:05:00,73.4,58.2,30.05,South,182,6.0,13.0,59,0.00,,FEW050,0.00,134.00,VWS V14.00,2013-03-05 20:05:00,
2013-03-05 15:10:00,73.3,57.7,30.05,South,186,8.0,9.0,58,0.00,,FEW050,0.00,127.00,VWS V14.00,2013-03-05 20:10:00,
2013-03-05 15:15:00,73.4,57.7,30.05,South,175,5.0,15.0,58,0.00,,FEW050,0.00,128.00,VWS V14.00,2013-03-05 20:15:00,
2013-03-05 15:20:00,73.2,57.5,30.05,South,180,8.0,11.0,58,0.00,,FEW050,0.00,128.00,VWS V14.00,2013-03-05 20:20:00,
2013-03-05 15:25:00,73.0,57.4,30.05,SSE,150,5.0,16.0,58,0.00,,FEW050,0.00,120.00,VWS V14.00,2013-03-05 20:25:00,
2013-03-05 15:30:00,72.8,57.2,30.04,South,175,4.0,12.0,58,0.00,,FEW050,0.00,125.00,VWS V14.00,2013-03-05 20:30:00,
2013-03-05 15:35:00,72.6,57.5,30.04,South,182,5.0,8.0,59,0.00,,FEW070,0.00,118.00,VWS V14.00,2013-03-05 20:35:00,
2013-03-05 15:40:00,72.9,57.8,30.04,South,175,5.0,11.0,59,0.00,,FEW070,0.00,116.00,VWS V14.00,2013-03-05 20:40:00,
2013-03-05 15:45:00,73.1,57.5,30.04,South,191,2.0,11.0,58,0.00,,FEW070,0.00,63.00,VWS V14.00,2013-03-05 20:45:00,
2013-03-05 15:50:00,72.9,56.8,30.04,SSE,153,8.0,15.0,57,0.00,,FEW070,0.00,42.00,VWS V14.00,2013-03-05 20:50:00,
2013-03-05 15:55:00,72.2,56.6,30.04,ESE,115,4.0,12.0,58,0.00,,FEW070,0.00,37.00,VWS V14.00,2013-03-05 20:55:00,
2013-03-05 16:00:00,71.9,56.8,30.04,SSW,192,4.0,11.0,59,0.00,,FEW070,0.00,42.00,VWS V14.00,2013-03-05 21:00:00,
2013-03-05 16:05:00,71.9,57.3,30.04,South,180,0.0,7.0,60,0.00,,FEW070,0.00,98.00,VWS V14.00,2013-03-05 21:05:00,
2013-03-05 16:10:00,72.3,56.7,30.04,SSE,159,5.0,13.0,58,0.00,,FEW070,0.00,95.00,VWS V14.00,2013-03-05 21:10:00,
2013-03-05 16:15:00,72.2,57.1,30.04,South,189,3.0,6.0,59,0.00,,FEW070,0.00,93.00,VWS V14.00,2013-03-05 21:15:00,
2013-03-05 16:20:00,72.4,57.3,30.04,SSW,209,13.0,13.0,59,0.00,,FEW070,0.00,93.00,VWS V14.00,2013-03-05 21:20:00,
2013-03-05 16:25:00,72.4,56.8,30.04,South,191,0.0,8.0,58,0.00,,FEW070,0.00,91.00,VWS V14.00,2013-03-05 21:25:00,
2013-03-05 16:30:00,72.5,56.9,30.04,SSW,192,9.0,14.0,58,0.00,,FEW070,0.00,91.00,VWS V14.00,2013-03-05 21:30:00,
2013-03-05 16:35:00,72.2,56.6,30.04,SSE,161,8.0,10.0,58,0.00,,FEW070,0.00,88.00,VWS V14.00,2013-03-05 21:35:00,
2013-03-05 16:40:00,72.1,56.5,30.04,South,171,10.0,12.0,58,0.00,,FEW070,0.00,86.00,VWS V14.00,2013-03-05 21:40:00,
2013-03-05 16:45:00,72.0,56.9,30.05,South,187,11.0,12.0,59,0.00,,FEW070,0.00,86.00,VWS V14.00,2013-03-05 21:45:00,
2013-03-05 16:50:00,71.8,56.7,30.04,South,179,8.0,10.0,59,0.00,,FEW070,0.00,83.00,VWS V14.00,2013-03-05 21:50:00,
2013-03-05 16:55:00,71.8,56.7,30.04,SSE,160,7.0,12.0,59,0.00,,FEW070,0.00,81.00,VWS V14.00,2013-03-05 21:55:00,
2013-03-05 17:00:00,71.5,56.4,30.04,South,187,6.0,14.0,59,0.00,,FEW070,0.00,79.00,VWS V14.00,2013-03-05 22:00:00,
2013-03-05 17:05:00,71.5,56.9,30.04,SSW,208,6.0,6.0,60,0.00,,FEW070,0.00,77.00,VWS V14.00,2013-03-05 22:05:00,
2013-03-05 17:10:00,71.5,56.9,30.04,SSW,195,2.0,9.0,60,0.00,,FEW070,0.00,76.00,VWS V14.00,2013-03-05 22:10:00,
2013-03-05 17:15:00,71.5,57.4,30.04,SSE,165,6.0,10.0,61,0.00,,FEW070,0.00,72.00,VWS V14.00,2013-03-05 22:15:00,
2013-03-05 17:20:00,71.3,57.2,30.05,South,180,4.0,7.0,61,0.00,,FEW070,0.00,69.00,VWS V14.00,2013-03-05 22:20:00,
2013-03-05 17:25:00,71.3,57.2,30.05,South,173,6.0,11.0,61,0.00,,FEW070,0.00,65.00,VWS V14.00,2013-03-05 22:25:00,
2013-03-05 17:30:00,71.1,57.0,30.05,SSW,194,10.0,11.0,61,0.00,,FEW070,0.00,62.00,VWS V14.00,2013-03-05 22:30:00,
2013-03-05 17:35:00,71.0,57.3,30.05,South,188,5.0,9.0,62,0.00,,FEW045,0.00,58.00,VWS V14.00,2013-03-05 22:35:00,
2013-03-05 17:40:00,71.0,56.9,30.04,South,180,5.0,11.0,61,0.00,,FEW045,0.00,53.00,VWS V14.00,2013-03-05 22:40:00,
2013-03-05 17:45:00,70.8,57.2,30.05,SSE,167,5.0,7.0,62,0.00,,FEW045,0.00,47.00,VWS V14.00,2013-03-05 22:45:00,
2013-03-05 17:50:00,70.6,57.4,30.04,South,170,4.0,5.0,63,0.00,,FEW045,0.00,42.00,VWS V14.00,2013-03-05 22:50:00,
2013-03-05 17:55:00,70.4,57.2,30.04,South,183,1.0,7.0,63,0.00,,FEW045,0.00,35.00,VWS V14.00,2013-03-05 22:55:00,
2013-03-05 18:00:00,70.2,57.0,30.04,SSW,196,10.0,13.0,63,0.00,,FEW045,0.00,32.00,VWS V14.00,2013-03-05 23:00:00,
2013-03-05 18:06:00,69.9,56.8,30.04,SSW,192,4.0,13.0,63,0.00,,FEW045,0.00,23.00,VWS V14.00,2013-03-05 23:06:00,
2013-03-05 18:11:00,69.5,56.8,30.04,South,191,6.0,10.0,64,0.00,,FEW045,0.00,7.00,VWS V14.00,2013-03-05 23:11:00,
2013-03-05 18:16:00,69.3,56.6,30.04,SSW,200,7.0,10.0,64,0.00,,FEW045,0.00,5.00,VWS V14.00,2013-03-05 23:16:00,
2013-03-05 18:21:00,69.0,56.3,30.04,South,182,9.0,9.0,64,0.00,,FEW045,0.00,0.00,VWS V14.00,2013-03-05 23:21:00,
2013-03-05 18:26:00,68.8,56.6,30.05,South,183,5.0,10.0,65,0.00,,FEW045,0.00,0.00,VWS V14.00,2013-03-05 23:26:00,
2013-03-05 18:31:00,68.6,56.4,30.05,South,190,6.0,8.0,65,0.00,,FEW045,0.00,0.00,VWS V14.00,2013-03-05 23:31:00,
2013-03-05 18:36:00,68.5,56.3,30.04,South,190,0.0,7.0,65,0.00,,CLR,0.00,0.00,VWS V14.00,2013-03-05 23:36:00,
2013-03-05 18:41:00,68.3,56.1,30.04,SSW,196,5.0,9.0,65,0.00,,CLR,0.00,0.00,VWS V14.00,2013-03-05 23:41:00,
2013-03-05 18:46:00,68.2,56.0,30.05,SSW,196,0.0,0.0,65,0.00,,CLR,0.00,0.00,VWS V14.00,2013-03-05 23:46:00,
2013-03-05 18:51:00,68.1,55.9,30.05,SSW,195,0.0,4.0,65,0.00,,CLR,0.00,0.00,VWS V14.00,2013-03-05 23:51:00,
2013-03-05 18:56:00,68.0,56.2,30.05,SSW,195,2.0,3.0,66,0.00,,CLR,0.00,0.00,VWS V14.00,2013-03-05 23:56:00,
2013-03-05 19:01:00,67.8,56.0,30.05,SSW,194,1.0,4.0,66,0.00,,CLR,0.00,0.00,VWS V14.00,2013-03-06 00:01:00,
2013-03-05 19:06:00,67.7,56.0,30.06,SSW,194,0.0,1.0,66,0.00,,CLR,0.00,0.00,VWS V14.00,2013-03-06 00:06:00,
2013-03-05 19:11:00,67.5,56.2,30.06,SSW,195,1.0,4.0,67,0.00,,CLR,0.00,0.00,VWS V14.00,2013-03-06 00:11:00,
2013-03-05 19:16:00,67.4,56.1,30.06,SSW,195,0.0,3.0,67,0.00,,CLR,0.00,0.00,VWS V14.00,2013-03-06 00:16:00,
2013-03-05 19:21:00,67.3,56.0,30.06,SSW,195,0.0,2.0,67,0.00,,CLR,0.00,0.00,VWS V14.00,2013-03-06 00:21:00,
2013-03-05 19:26:00,67.2,56.3,30.06,SSW,195,0.0,0.0,68,0.00,,CLR,0.00,0.00,VWS V14.00,2013-03-06 00:26:00,
2013-03-05 19:31:00,67.1,56.2,30.06,SSW,195,0.0,0.0,68,0.00,,CLR,0.00,0.00,VWS V14.00,2013-03-06 00:31:00,
2013-03-05 19:36:00,66.9,56.0,30.06,SSW,195,0.0,0.0,68,0.00,,CLR,0.00,0.00,VWS V14.00,2013-03-06 00:36:00,
2013-03-05 19:41:00,66.8,55.9,30.06,SSW,195,0.0,0.0,68,0.00,,CLR,0.00,0.00,VWS V14.00,2013-03-06 00:41:00,
2013-03-05 19:46:00,66.7,56.2,30.06,SSW,195,2.0,2.0,69,0.00,,CLR,0.00,0.00,VWS V14.00,2013-03-06 00:46:00,
2013-03-05 19:51:00,66.6,56.1,30.06,SSW,195,0.0,0.0,69,0.00,,CLR,0.00,0.00,VWS V14.00,2013-03-06 00:51:00,
2013-03-05 19:56:00,66.5,56.0,30.06,SSW,195,1.0,3.0,69,0.00,,CLR,0.00,0.00,VWS V14.00,2013-03-06 00:56:00,
2013-03-05 20:01:00,66.4,56.3,30.06,SSW,195,0.0,3.0,70,0.00,,CLR,0.00,0.00,VWS V14.00,2013-03-06 01:01:00,
2013-03-05 20:06:00,66.3,56.2,30.06,SSW,195,0.0,0.0,70,0.00,,CLR,0.00,0.00,VWS V14.00,2013-03-06 01:06:00,
2013-03-05 20:11:00,66.2,56.1,30.06,SSW,195,0.0,0.0,70,0.00,,CLR,0.00,0.00,VWS V14.00,2013-03-06 01:11:00,
2013-03-05 20:16:00,66.1,56.0,30.06,SSW,195,0.0,1.0,70,0.00,,CLR,0.00,0.00,VWS V14.00,2013-03-06 01:16:00,
2013-03-05 20:21:00,65.9,55.8,30.06,SSW,195,0.0,0.0,70,0.00,,CLR,0.00,0.00,VWS V14.00,2013-03-06 01:21:00,
2013-03-05 20:26:00,65.7,56.0,30.07,SSW,195,0.0,0.0,71,0.00,,CLR,0.00,0.00,VWS V14.00,2013-03-06 01:26:00,
2013-03-05 20:31:00,65.5,55.9,30.07,SSW,195,0.0,0.0,71,0.00,,CLR,0.00,0.00,VWS V14.00,2013-03-06 01:31:00,
2013-03-05 20:36:00,65.4,55.8,30.07,SSW,195,0.0,0.0,71,0.00,,CLR,0.00,0.00,VWS V14.00,2013-03-06 01:36:00,
2013-03-05 20:41:00,65.3,56.0,30.07,SSW,195,0.0,0.0,72,0.00,,CLR,0.00,0.00,VWS V14.00,2013-03-06 01:41:00,
2013-03-05 20:46:00,65.1,55.9,30.07,SSW,195,0.0,0.0,72,0.00,,CLR,0.00,0.00,VWS V14.00,2013-03-06 01:46:00,
2013-03-05 20:51:00,65.0,55.8,30.07,SSW,195,0.0,2.0,72,0.00,,CLR,0.00,0.00,VWS V14.00,2013-03-06 01:51:00,
2013-03-05 20:56:00,64.9,56.0,30.07,SSW,195,3.0,3.0,73,0.00,,CLR,0.00,0.00,VWS V14.00,2013-03-06 01:56:00,
2013-03-05 21:01:00,64.8,56.0,30.07,SSW,195,1.0,1.0,73,0.00,,CLR,0.00,0.00,VWS V14.00,2013-03-06 02:01:00,
2013-03-05 21:06:00,64.7,55.9,30.07,SSW,195,0.0,1.0,73,0.00,,CLR,0.00,0.00,VWS V14.00,2013-03-06 02:06:00,
2013-03-05 21:11:00,64.7,55.9,30.06,SSW,196,0.0,4.0,73,0.00,,CLR,0.00,0.00,VWS V14.00,2013-03-06 02:11:00,
2013-03-05 21:16:00,64.7,55.9,30.06,SSW,196,3.0,3.0,73,0.00,,CLR,0.00,0.00,VWS V14.00,2013-03-06 02:16:00,
2013-03-05 21:21:00,64.7,56.2,30.06,SSW,196,0.0,0.0,74,0.00,,CLR,0.00,0.00,VWS V14.00,2013-03-06 02:21:00,
2013-03-05 21:26:00,64.6,56.1,30.06,SSW,197,1.0,3.0,74,0.00,,CLR,0.00,0.00,VWS V14.00,2013-03-06 02:26:00,
2013-03-05 21:31:00,64.6,56.1,30.06,SSW,201,7.0,7.0,74,0.00,,CLR,0.00,0.00,VWS V14.00,2013-03-06 02:31:00,
2013-03-05 21:36:00,64.5,56.0,30.07,SSW,204,5.0,6.0,74,0.00,,CLR,0.00,0.00,VWS V14.00,2013-03-06 02:36:00,
2013-03-05 21:41:00,64.5,56.0,30.07,SSW,204,0.0,1.0,74,0.00,,CLR,0.00,0.00,VWS V14.00,2013-03-06 02:41:00,
2013-03-05 21:46:00,64.5,56.0,30.07,SSW,205,0.0,0.0,74,0.00,,CLR,0.00,0.00,VWS V14.00,2013-03-06 02:46:00,
2013-03-05 21:51:00,64.5,56.0,30.07,SSW,207,0.0,0.0,74,0.00,,CLR,0.00,0.00,VWS V14.00,2013-03-06 02:51:00,
2013-03-05 21:56:00,64.5,56.4,30.07,SSW,207,1.0,3.0,75,0.00,,CLR,0.00,0.00,VWS V14.00,2013-03-06 02:56:00,
2013-03-05 22:01:00,64.5,56.4,30.07,SSW,209,0.0,6.0,75,0.00,,CLR,0.00,0.00,VWS V14.00,2013-03-06 03:01:00,
2013-03-05 22:06:00,64.5,56.4,30.06,SSW,211,2.0,6.0,75,0.00,,CLR,0.00,0.00,VWS V14.00,2013-03-06 03:06:00,
2013-03-05 22:11:00,64.4,56.7,30.06,SW,216,2.0,4.0,76,0.00,,CLR,0.00,0.00,VWS V14.00,2013-03-06 03:11:00,
2013-03-05 22:16:00,64.3,56.2,30.07,SW,217,0.0,2.0,75,0.00,,CLR,0.00,0.00,VWS V14.00,2013-03-06 03:16:00,
2013-03-05 22:21:00,64.3,56.2,30.07,SW,217,0.0,1.0,75,0.00,,CLR,0.00,0.00,VWS V14.00,2013-03-06 03:21:00,
2013-03-05 22:26:00,64.1,56.0,30.06,SW,217,0.0,1.0,75,0.00,,CLR,0.00,0.00,VWS V14.00,2013-03-06 03:26:00,
2013-03-05 22:31:00,64.0,56.3,30.06,SW,217,0.0,1.0,76,0.00,,CLR,0.00,0.00,VWS V14.00,2013-03-06 03:31:00,
2013-03-05 22:37:00,64.0,56.3,30.06,SW,217,0.0,1.0,76,0.00,,CLR,0.00,0.00,VWS V14.00,2013-03-06 03:37:00,
2013-03-05 22:42:00,63.9,56.2,30.06,SW,217,2.0,3.0,76,0.00,,CLR,0.00,0.00,VWS V14.00,2013-03-06 03:42:00,
2013-03-05 22:47:00,63.9,56.2,30.06,SW,217,0.0,2.0,76,0.00,,CLR,0.00,0.00,VWS V14.00,2013-03-06 03:47:00,
2013-03-05 22:51:00,63.8,56.1,30.06,SW,217,1.0,1.0,76,0.00,,CLR,0.00,0.00,VWS V14.00,2013-03-06 03:51:00,
2013-03-05 22:56:00,63.7,56.0,30.06,SW,219,5.0,6.0,76,0.00,,CLR,0.00,0.00,VWS V14.00,2013-03-06 03:56:00,
2013-03-05 23:01:00,63.7,56.4,30.06,SW,219,0.0,3.0,77,0.00,,CLR,0.00,0.00,VWS V14.00,2013-03-06 04:01:00,
2013-03-05 23:07:00,63.6,56.3,30.06,SW,219,0.0,2.0,77,0.00,,CLR,0.00,0.00,VWS V14.00,2013-03-06 04:07:00,
2013-03-05 23:12:00,63.6,56.3,30.06,SW,219,0.0,2.0,77,0.00,,CLR,0.00,0.00,VWS V14.00,2013-03-06 04:12:00,
2013-03-05 23:17:00,63.5,56.2,30.05,SW,222,6.0,6.0,77,0.00,,CLR,0.00,0.00,VWS V14.00,2013-03-06 04:17:00,
2013-03-05 23:22:00,63.4,56.1,30.05,SW,222,3.0,3.0,77,0.00,,CLR,0.00,0.00,VWS V14.00,2013-03-06 04:22:00,
2013-03-05 23:27:00,63.4,56.4,30.05,SW,222,1.0,4.0,78,0.00,,CLR,0.00,0.00,VWS V14.00,2013-03-06 04:27:00,
2013-03-05 23:32:00,63.3,56.3,30.05,SW,223,0.0,4.0,78,0.00,,CLR,0.00,0.00,VWS V14.00,2013-03-06 04:32:00,
2013-03-05 23:37:00,63.1,56.1,30.05,SW,223,2.0,4.0,78,0.00,,CLR,0.00,0.00,VWS V14.00,2013-03-06 04:37:00,
2013-03-05 23:42:00,63.1,56.5,30.05,SW,223,0.0,3.0,79,0.00,,CLR,0.00,0.00,VWS V14.00,2013-03-06 04:42:00,
2013-03-05 23:47:00,62.9,56.3,30.05,SW,225,0.0,2.0,79,0.00,,CLR,0.00,0.00,VWS V14.00,2013-03-06 04:47:00,
2013-03-05 23:52:00,62.9,56.3,30.04,SW,227,2.0,6.0,79,0.00,,CLR,0.00,0.00,VWS V14.00,2013-03-06 04:52:00,
2013-03-05 23:57:00,62.8,56.5,30.04,SW,228,2.0,5.0,80,0.00,,CLR,0.00,0.00,VWS V14.00,2013-03-06 04:57:00,